Change the Weather History Date:

Monday, September 24, 2012

  Actual Average Record
Temperature  
Mean Temperature 80 °F -  
Max Temperature 95 °F 81 °F 99 °F (1998)
Min Temperature 66 °F 56 °F 48 °F (2000)
Cooling Degree Days 14    
Growing Degree Days 30 (Base 50)    
Moisture  
Dew Point 50 °F    
Average Humidity 37    
Maximum Humidity 59    
Minimum Humidity 21    
Precipitation  
Precipitation 0.00 in - - ()
Sea Level Pressure  
Sea Level Pressure 29.93 in    
Wind  
Wind Speed 16 mph (SSW)    
Max Wind Speed 26 mph    
Max Gust Speed 40 mph    
Visibility 10 miles    
Events      
Averages and records for this station are not official NWS values.
T = Trace of Precipitation, MM = Missing Value Source: NWS Daily Summary

Daily Weather History Graph

Daily Weather History Graph

Search for Another Location

Airport or City:

Trip Planner

Search our weather history database for the weather conditions in past years. The results will help you decide how hot, cold, wet, or windy it might be!

Date:

Astronomy

Sep. 24, 2012 Rise Set
Actual Time 7:26 AM CDT 7:29 PM CDT
Civil Twilight 7:00 AM CDT 7:54 PM CDT
Nautical Twilight 6:31 AM CDT 8:23 PM CDT
Astronomical Twilight 6:01 AM CDT 8:53 PM CDT
Moon 4:06 PM CDT (9/24) 1:55 AM CDT (9/24)
Length of Visible Light 12h 53m
Length of Day
12h 03m
Waxing Gibbous, 71% of the Moon is Illuminated
Sep 24
Waxing Gibbous
Sep 29
Full
Oct 8
Last Quarter
Oct 15
New
Oct 21
First Quarter

Hourly Weather History & Observations

Time (CDT) Temp. Heat Index Dew Point Humidity Pressure Visibility Wind Dir Wind Speed Gust Speed Precip Events Conditions
12:53 AM 75.0 °F - 50.0 °F 41% 30.01 in 10.0 mi SSW 12.7 mph - N/A   Clear
1:53 AM 71.1 °F - 48.9 °F 45% 30.01 in 10.0 mi SSW 12.7 mph - N/A   Clear
2:53 AM 70.0 °F - 48.9 °F 47% 30.00 in 10.0 mi SSW 13.8 mph - N/A   Clear
3:53 AM 70.0 °F - 50.0 °F 49% 29.99 in 10.0 mi SSW 12.7 mph - N/A   Clear
4:53 AM 68.0 °F - 50.0 °F 52% 29.98 in 10.0 mi SSW 13.8 mph - N/A   Clear
5:53 AM 68.0 °F - 51.1 °F 55% 29.99 in 10.0 mi SSW 15.0 mph - N/A   Clear
6:53 AM 66.9 °F - 52.0 °F 59% 29.99 in 10.0 mi SSW 15.0 mph - N/A   Clear
7:53 AM 66.9 °F - 52.0 °F 59% 30.01 in 10.0 mi SW 11.5 mph - N/A   Clear
8:53 AM 71.1 °F - 53.1 °F 53% 30.03 in 10.0 mi SW 9.2 mph - N/A   Clear
9:53 AM 78.1 °F - 53.1 °F 42% 30.04 in 10.0 mi SSW 17.3 mph - N/A   Clear
10:53 AM 84.0 °F 82.9 °F 55.0 °F 37% 30.02 in 10.0 mi WSW 21.9 mph 28.8 mph N/A   Clear
11:53 AM 88.0 °F 86.7 °F 57.0 °F 35% 30.00 in 10.0 mi SW 21.9 mph 31.1 mph N/A   Clear
12:53 PM 91.0 °F 89.2 °F 55.9 °F 30% 29.97 in 10.0 mi SW 23.0 mph 29.9 mph N/A   Clear
1:53 PM 91.0 °F - 51.1 °F 25% 29.93 in 10.0 mi SSW 26.5 mph 33.4 mph N/A   Clear
2:53 PM 93.0 °F - 50.0 °F 23% 29.89 in 10.0 mi SW 23.0 mph 34.5 mph N/A   Clear
3:53 PM 91.9 °F 89.5 °F 54.0 °F 27% 29.86 in 10.0 mi SSW 25.3 mph 29.9 mph N/A   Clear
4:53 PM 93.9 °F - 51.1 °F 23% 29.84 in 10.0 mi SSW 23.0 mph 31.1 mph N/A   Clear
5:53 PM 93.9 °F - 48.0 °F 21% 29.82 in 10.0 mi SSW 25.3 mph 40.3 mph N/A   Clear
6:53 PM 89.1 °F - 46.0 °F 22% 29.83 in 10.0 mi SW 15.0 mph 27.6 mph N/A   Clear
7:53 PM 86.0 °F - 48.0 °F 27% 29.84 in 10.0 mi SSW 15.0 mph - N/A   Clear
8:53 PM 82.9 °F - 48.0 °F 29% 29.84 in 10.0 mi South 12.7 mph - N/A   Clear
9:53 PM 81.0 °F - 46.0 °F 29% 29.85 in 10.0 mi South 10.4 mph - N/A   Clear
10:53 PM 81.0 °F - 46.0 °F 29% 29.84 in 10.0 mi South 16.1 mph - N/A   Clear
11:53 PM 80.1 °F - 45.0 °F 29% 29.83 in 10.0 mi South 17.3 mph - N/A   Clear